SCOUT B R/B, 2206

Orbit data source: Space-Track

SCOUT B R/B, 2206 is space debris in LEO originally from a launch on Fri, 10 Jun 1966 UTC launched from the Wallops Island (WLPIS). Debris objects in space refer to the collection of defunct objects orbiting the Earth. Examples of debris include non-operational satellites, rocket bodies, and fragments generated from explosions, collisions, or faulty payload assembly.

Loading next visibility...
SCOUT B R/B details
Identifier
2206, 1966-052B
Orbit
LEO
Last TLE update11 hours ago
Origin
Flag of USNASA LaRC (US)
ManufacturerUTC
MissionSpacecraft
Bus & MotorFW4, Unknown motor
Mass47 kg wet, 47 kg dry
Launch date (UTC)
1966-06-10 (59 years ago)
Launch vehicleUnknown
Launch site
Wallops Island (WLPIS)
Object type
Payload
Rocket body
Debris
Shape & HBRCyl, 1.5 m
Radar Cross Section0.687 m², Medium (>0.1 m² and < 1m²)

Expand to show TLE details & history

TLE from 11 hours ago
0 SCOUT B R/B
1 02206U 66052B   25047.57359144  .00000047  00000-0  11007-3 0  9998
2 02206  40.8592 165.0042 2211676 333.1426  16.9720 10.14283904153472
Epoch: 2025-02-16T13:45Z
Definitive object data (Epoch: 2025-02-16T13:45:58.3Z)
Latitude-0.00003°
Longitude171.70654°
Altitude783.535 km
Speed8.193 km/s
True Right ascension11h 00m 00s
True Declination0° 00' 00"
Sunlit
Object was in full shadow at TLE epoch
Visualization TLE readout
Latitude-30.38531°
Longitude33.00072°
Altitude2,695.744 km
Speed6.611 km/s
Apparent Right ascension23h 27m 16s
Apparent Declination-63° 09' 14"
Sunlit
Object is in daylight
Visualization observer readout
Local Sidereal Time03:46:39
Azimuth206.85° SW
Elevation-25.168°
Doppler factor1
Orbital elements
Apogee altitude4,632.908 km
Perigee altitude644.452 km
Semi-major axis9,016.817 km
Eccentricity0.2211676
Inclination40.8592°
RAAN165.0042°
Arg. of periapsis333.1426°
True anomaly26.92548°
Mean anomaly16.972°
Eccentric anomaly21.6464°
Mean motion2.53491 °/min
BSTAR0.00011007
Orbital period142.02 mins
Loading maneuver chart data...
Loading historical data...
Loading historical data...
Loading historical data...
Loading historical data...
Loading historical data...
Loading historical data...
Loading historical data...
Other satellites on launch #52 in the year 1966 (1966-06-10 UTC)

SCOUT B R/B Visibility forecast

Observer location: undefined°, undefined

Span
Click to sort rows by Start time (UTC) header in descending order
Start Az.
Max El. time (UTC)
Max El. Az.
Max El.
End time (UTC)
End Az.
10 mins2025-02-17 08:49:03.871Z151.199° SSE2025-02-17 08:53:03.871Z118.527° SE15.626°2025-02-17 08:59:03.871Z86.01° E
24 mins2025-02-17 11:14:03.871Z226.277° WSW2025-02-17 11:21:03.871Z142.587° SSE42.598°2025-02-17 11:38:03.871Z72.901° E
37 mins2025-02-17 13:42:03.871Z268.941° W2025-02-17 13:54:03.871Z38.994° NE44.931°2025-02-17 14:19:03.871Z92.342° ESE
45 mins2025-02-17 16:13:03.871Z285.275° WNW2025-02-17 16:30:03.871Z198.799° SSW44.229°2025-02-17 16:58:03.871Z125.685° SE
44 mins2025-02-17 18:46:03.871Z284.526° WNW2025-02-17 19:05:03.871Z227.897° WSW34.011°2025-02-17 19:30:03.871Z165.777° S
|